TimeCST,TemperatureF,Dew PointF,Humidity,Sea Level PressureIn,VisibilityMPH,Wind Direction,Wind SpeedMPH,Gust SpeedMPH,PrecipitationIn,Events,Conditions,WindDirDegrees,DateUTC
12:15 AM,24.8,21.2,86,30.39,10.0,Calm,Calm,-,N/A,,Clear,0,2013-01-15 06:15:00
12:35 AM,24.8,21.2,86,30.38,10.0,Calm,Calm,-,N/A,,Clear,0,2013-01-15 06:35:00
12:55 AM,23.0,21.2,93,30.38,10.0,Calm,Calm,-,N/A,,Clear,0,2013-01-15 06:55:00
1:15 AM,23.0,21.2,93,30.39,10.0,Calm,Calm,-,N/A,,Clear,0,2013-01-15 07:15:00
1:35 AM,23.0,21.2,93,30.38,10.0,Calm,Calm,-,N/A,,Clear,0,2013-01-15 07:35:00
1:55 AM,23.0,21.2,93,30.38,10.0,Calm,Calm,-,N/A,,Clear,0,2013-01-15 07:55:00
2:15 AM,23.0,21.2,93,30.38,10.0,Calm,Calm,-,N/A,,Clear,0,2013-01-15 08:15:00
2:35 AM,23.0,21.2,93,30.38,10.0,Calm,Calm,-,N/A,,Clear,0,2013-01-15 08:35:00
2:55 AM,23.0,21.2,93,30.37,10.0,Calm,Calm,-,N/A,,Clear,0,2013-01-15 08:55:00
3:15 AM,23.0,21.2,93,30.36,10.0,Calm,Calm,-,N/A,,Clear,0,2013-01-15 09:15:00
3:35 AM,23.0,21.2,93,30.36,10.0,Calm,Calm,-,N/A,,Clear,0,2013-01-15 09:35:00
3:55 AM,23.0,21.2,93,30.36,10.0,Calm,Calm,-,N/A,,Clear,0,2013-01-15 09:55:00
4:15 AM,23.0,21.2,93,30.35,10.0,Calm,Calm,-,N/A,,Clear,0,2013-01-15 10:15:00
4:35 AM,23.0,21.2,93,30.35,10.0,Calm,Calm,-,N/A,,Clear,0,2013-01-15 10:35:00
4:55 AM,23.0,21.2,93,30.35,10.0,NNE,6.9,-,N/A,,Clear,20,2013-01-15 10:55:00
5:15 AM,23.0,21.2,93,30.35,10.0,North,5.8,-,N/A,,Clear,10,2013-01-15 11:15:00
5:35 AM,23.0,21.2,93,30.34,10.0,NNE,10.4,-,N/A,,Clear,20,2013-01-15 11:35:00
7:55 AM,23.0,21.2,93,30.35,20.0,North,8.1,-,N/A,,Scattered Clouds,10,2013-01-15 13:55:00
8:55 AM,24.8,21.2,86,30.33,20.0,NNE,8.1,-,N/A,,Scattered Clouds,30,2013-01-15 14:55:00
9:55 AM,26.6,21.2,80,30.34,20.0,NE,4.6,-,N/A,,Scattered Clouds,40,2013-01-15 15:55:00
10:55 AM,28.4,23.0,80,30.30,20.0,NE,9.2,-,N/A,,Scattered Clouds,50,2013-01-15 16:55:00
11:55 AM,28.4,23.0,80,30.27,20.0,North,11.5,-,N/A,,Mostly Cloudy,350,2013-01-15 17:55:00
12:54 PM,28.4,21.2,74,30.28,15.0,North,8.1,-,N/A,,Overcast,10,2013-01-15 18:54:00
1:53 PM,28.4,23.0,80,30.24,15.0,North,9.2,-,N/A,,Overcast,10,2013-01-15 19:53:00
2:52 PM,30.2,23.0,75,30.22,15.0,NNE,6.9,-,N/A,,Overcast,30,2013-01-15 20:52:00
3:53 PM,30.2,24.8,80,30.22,12.0,NNE,8.1,-,N/A,,Overcast,30,2013-01-15 21:53:00
4:54 PM,30.2,24.8,80,30.21,12.0,NNE,11.5,-,N/A,,Overcast,20,2013-01-15 22:54:00
5:55 PM,30.2,24.8,80,30.19,12.0,NNE,9.2,-,N/A,,Overcast,20,2013-01-15 23:55:00
6:55 PM,30.2,24.8,80,30.19,10.0,North,9.2,-,N/A,,Overcast,360,2013-01-16 00:55:00
7:15 PM,30.2,24.8,80,30.19,10.0,North,8.1,-,N/A,,Overcast,360,2013-01-16 01:15:00
7:35 PM,30.2,24.8,80,30.20,10.0,NNW,5.8,-,N/A,,Overcast,340,2013-01-16 01:35:00
7:55 PM,30.2,24.8,80,30.19,10.0,North,5.8,-,N/A,,Overcast,350,2013-01-16 01:55:00
8:15 PM,30.2,24.8,80,30.19,10.0,NNW,4.6,-,N/A,,Overcast,340,2013-01-16 02:15:00
8:35 PM,32.0,24.8,75,30.18,10.0,North,5.8,-,N/A,,Overcast,360,2013-01-16 02:35:00
8:55 PM,32.0,24.8,75,30.17,10.0,North,4.6,-,N/A,,Overcast,360,2013-01-16 02:55:00
9:15 PM,32.0,24.8,75,30.18,10.0,Calm,Calm,-,N/A,,Overcast,0,2013-01-16 03:15:00
9:35 PM,32.0,24.8,75,30.17,10.0,NNW,3.5,-,N/A,,Overcast,330,2013-01-16 03:35:00
9:55 PM,32.0,24.8,75,30.16,10.0,North,3.5,-,N/A,,Overcast,350,2013-01-16 03:55:00
10:15 PM,32.0,24.8,75,30.17,10.0,NNW,3.5,-,N/A,,Overcast,340,2013-01-16 04:15:00
10:35 PM,32.0,24.8,75,30.17,10.0,NNW,3.5,-,N/A,,Overcast,340,2013-01-16 04:35:00
10:55 PM,32.0,24.8,75,30.17,10.0,NNW,3.5,-,N/A,,Overcast,340,2013-01-16 04:55:00
11:15 PM,32.0,24.8,75,30.14,10.0,North,4.6,-,N/A,,Overcast,350,2013-01-16 05:15:00
11:35 PM,32.0,24.8,75,30.14,10.0,NNW,4.6,-,N/A,,Overcast,340,2013-01-16 05:35:00
11:55 PM,32.0,26.6,80,30.12,10.0,North,3.5,-,N/A,,Overcast,10,2013-01-16 05:55:00